RH
16 17 17 18 18 18 17 18 19 22 25 27 28 28 27 27 28 29 31 34 36 37 36 36 38 41 44 45 47 47 49 55 59 61 63 64 68 74 78 79 79 80
18 18 19 19 19 18 18 18 20 22 27 29 31 31 31 30 30 33 36 38 40 41 40 40 40 41 42 43 46 47 48 50 55 59 61 61 64 68 71 73 76 79
19 20 20 20 20 19 19 19 21 23 27 30 32 33 32 32 33 35 38 40 41 43 44 46 46 46 46 45 45 46 47 48 50 55 59 61 63 65 65 63 66 70
20 21 21 21 21 21 21 21 22 25 28 31 33 33 32 33 35 37 38 38 39 41 44 48 50 51 49 49 48 46 47 47 47 47 50 54 58 62 66 66 66 66
21 22 22 22 22 22 22 23 24 28 32 34 35 35 34 35 38 38 38 38 40 42 45 48 50 51 50 50 50 48 47 48 49 48 47 49 50 52 59 65 68 69
22 23 23 23 22 23 24 25 26 30 35 37 38 37 37 38 41 41 41 41 44 46 48 52 54 56 56 55 55 53 51 51 52 52 51 50 50 49 52 58 63 66
24 24 24 24 24 25 25 26 27 33 38 40 39 39 39 40 42 42 42 45 47 48 50 55 62 65 66 66 65 63 60 58 56 57 57 55 53 51 50 53 57 62
24 25 25 25 26 26 27 26 29 35 40 41 40 39 39 41 43 43 43 46 50 51 53 60 67 72 74 74 72 71 68 64 61 60 59 59 57 54 51 51 53 59
26 26 27 27 27 27 27 26 30 37 42 41 39 37 37 41 44 44 45 49 52 54 57 63 70 75 80 81 79 78 76 71 66 63 62 63 63 63 59 57 56 57
26 28 28 28 28 28 27 26 29 37 42 42 39 36 37 41 44 44 45 50 54 57 60 63 70 78 85 86 86 86 84 77 70 68 68 69 68 68 67 65 63 61
27 29 29 29 28 28 27 25 27 34 40 42 39 36 37 42 44 44 44 47 51 56 59 63 71 81 87 88 88 89 89 84 76 72 74 75 73 70 69 69 67 64
28 29 30 30 29 28 27 24 24 31 38 41 39 36 36 41 44 44 43 42 44 49 55 61 69 78 84 86 87 89 91 89 84 81 81 82 82 76 71 71 69 65
28 29 30 31 32 30 28 24 23 28 36 41 40 36 35 37 42 45 45 42 42 44 49 55 62 71 79 84 87 90 91 90 89 88 87 86 87 82 75 73 72 68
30 30 31 33 34 34 31 26 24 27 34 40 40 36 34 35 37 43 46 44 41 41 43 48 56 66 76 84 88 88 86 85 87 88 87 86 85 84 81 78 77 75
31 31 31 33 35 37 35 30 27 28 33 38 38 35 34 33 34 39 45 45 42 40 41 44 52 63 73 81 86 83 79 81 85 88 88 86 85 87 88 85 81 78
31 31 32 34 36 38 38 36 32 31 34 37 35 32 32 33 34 38 43 45 43 42 42 44 49 60 68 75 79 79 76 80 84 86 87 86 86 90 91 88 83 81
31 31 33 35 38 40 41 40 38 35 37 38 34 30 30 32 34 38 43 44 43 43 44 45 49 57 66 71 76 75 76 80 84 84 85 85 87 91 93 90 87 86
33 33 34 37 42 44 43 42 41 41 42 42 37 32 32 33 36 39 43 44 43 43 44 44 46 54 62 68 72 73 76 81 83 83 84 86 87 91 94 93 90 89
35 35 37 41 45 46 44 42 43 44 46 45 41 37 37 38 39 41 43 44 43 42 42 41 43 50 58 63 65 69 76 81 82 82 85 88 89 92 94 95 93 91
36 36 39 44 46 45 43 43 43 45 46 46 44 41 40 40 41 42 44 44 42 39 38 38 40 47 55 58 60 65 73 80 82 83 86 89 91 93 94 94 95 95
38 38 42 46 46 44 43 43 43 45 47 47 45 43 41 41 42 44 44 42 38 35 35 35 37 44 51 55 57 64 72 79 83 84 86 89 92 94 94 93 93 94
40 40 43 45 45 45 45 45 46 48 50 50 47 43 42 43 45 46 45 40 34 32 34 35 36 42 48 51 54 62 70 77 80 82 84 88 91 93 95 94 93 92
43 42 43 44 46 47 48 50 51 52 52 50 47 45 46 47 48 47 44 40 34 33 35 37 37 40 45 48 52 61 69 72 73 76 80 86 90 93 96 96 93 92
46 44 43 44 48 49 51 53 53 54 54 51 48 49 52 53 51 49 47 44 40 38 38 39 38 39 43 47 49 57 67 71 70 71 76 83 87 90 95 98 95 92
47 45 43 46 49 52 53 54 54 56 58 55 52 55 59 58 53 51 51 50 47 44 43 43 40 38 43 48 50 52 59 66 68 69 72 78 84 87 92 97 95 92
47 46 45 47 51 54 56 55 55 59 62 60 59 61 64 63 57 54 54 54 52 50 50 50 46 41 42 47 49 50 51 55 59 64 68 73 78 83 89 94 93 91